Satellite: LIBERT
Catalog number: 31129
Epoch time:      08031.69555126
Element set:     715
Inclination:      098.0587 deg
RA of node:       100.8720 deg
Eccentricity:    0.0103077
Arg of perigee:   040.6082 deg
Mean anomaly:     320.2697 deg
Mean motion:   14.51999856 rev/day
Decay rate:       3.39e-06 rev/day^2
Epoch rev:            4196
Checksum:              303

/EX
SB KEPS @ AMSAT  $ORB08031.W
Orbital Elements  08031.WEATHER

HR AMSAT ORBITAL ELEMENTS FOR WEATHER SATELLITES
FROM WA5QGD FORT WORTH,TX January 31, 2008
Send Subscribe/unsubscribe to KEPS at 
http://www.amsat.org/mailman/listinfo/keps
BID: ORB08031.W
TO ALL RADIO AMATEURS BT

Satellite: NOAA-10
Catalog number: 16969
Epoch time:      08030.56814286
Element set:    0987
Inclination:      098.7344 deg
RA of node:       052.7386 deg
Eccentricity:    0.0011845
Arg of perigee:   223.0965 deg
Mean anomaly:     136.9303 deg
Mean motion:   14.27349028 rev/day
Decay rate:        9.0e-08 rev/day^2
Epoch rev:           11166
Checksum:              320

Satellite: NOAA-11
Catalog number: 19531
Epoch time:      08031.26856432
Element set:      23
Inclination:      098.8011 deg
RA of node:       122.5156 deg
Eccentricity:    0.0012302
Arg of perigee:   100.4348 deg
Mean anomaly:     259.8204 deg
Mean motion:   14.14863566 rev/day
Decay rate:      -1.82e-06 rev/day^2
Epoch rev:           99840
Checksum:              277

Satellite: NOAA-12
Catalog number: 21263
Epoch time:      08031.42041136
Element set:     528
Inclination:      098.7649 deg
RA of node:       033.4017 deg
Eccentricity:    0.0012841
Arg of perigee:   162.0652 deg
Mean anomaly:     198.0994 deg
Mean motion:   14.25513798 rev/day
Decay rate:       -8.4e-07 rev/day^2
Epoch rev:           86876
Checksum:              308

Satellite: MET-3/5
Catalog number: 21655
Epoch time:      08030.92892448
Element set:    0388
Inclination:      082.5496 deg
RA of node:       202.0314 deg
Eccentricity:    0.0013829
Arg of perigee:   003.8399 deg
Mean anomaly:     356.2822 deg
Mean motion:   13.17014144 rev/day
Decay rate:        5.1e-07 rev/day^2
Epoch rev:           79138
Checksum:              303

Satellite: MET-2/21
Catalog number: 22782
Epoch time:      08030.65470348
Element set:    0052
Inclination:      082.5444 deg
RA of node:       221.4518 deg
Eccentricity:    0.0021743
Arg of perigee:   321.8306 deg
Mean anomaly:     038.1310 deg
Mean motion:   13.83624778 rev/day
Decay rate:       -1.0e-07 rev/day^2
Epoch rev:           72797
Checksum:              281

Satellite: OKEAN-4
Catalog number: 23317
Epoch time:      08030.83552546
Element set:    0494
Inclination:      082.5368 deg
RA of node:       084.1675 deg
Eccentricity:    0.0020849
Arg of perigee:   219.7798 deg
Mean anomaly:     140.1898 deg
Mean motion:   14.82573371 rev/day
Decay rate:        4.0e-07 rev/day^2
Epoch rev:           71778
Checksum:              332

Satellite: NOAA-14
Catalog number: 23455
Epoch time:      08030.83126586
Element set:    0000
Inclination:      098.9618 deg
RA of node:       102.9134 deg
Eccentricity:    0.0009709
Arg of perigee:   171.6798 deg
Mean anomaly:     188.4546 deg
Mean motion:   14.13733311 rev/day
Decay rate:       -3.1e-07 rev/day^2
Epoch rev:           67480
Checksum:              303

Satellite: SICH-1
Catalog number: 23657
Epoch time:      08030.83048954
Element set:     292
Inclination:      082.5248 deg
RA of node:       225.1090 deg
Eccentricity:    0.0022853
Arg of perigee:   211.7328 deg
Mean anomaly:     148.2501 deg
Mean motion:   14.81546218 rev/day
Decay rate:       -5.5e-07 rev/day^2
Epoch rev:           66973
Checksum:              295

Satellite: NOAA-15
Catalog number: 25338
Epoch time:      08031.42500416
Element set:     336
Inclination:      098.5471 deg
RA of node:       026.8439 deg
Eccentricity:    0.0011603
Arg of perigee:   084.2351 deg
Mean anomaly:     276.0141 deg
Mean motion:   14.24684431 rev/day
Decay rate:        8.9e-07 rev/day^2
Epoch rev:           50518
Checksum:              278

Satellite: RESURS
Catalog number: 25394
Epoch time:      08030.70244836
Element set:    0847
Inclination:      098.4069 deg
RA of node:       080.8368 deg
Eccentricity:    0.0000618
Arg of perigee:   246.3842 deg
Mean anomaly:     113.7272 deg
Mean motion:   14.24152739 rev/day
Decay rate:       -2.6e-07 rev/day^2
Epoch rev:           49673
Checksum:              309

Satellite: FENGYUN1
Catalog number: 25730
Epoch time:      08030.95416155
Element set:    0381
Inclination:      098.7128 deg
RA of node:       011.4759 deg
Eccentricity:    0.0020554
Arg of perigee:   198.2900 deg
Mean anomaly:     161.7532 deg
Mean motion:   14.07673326 rev/day
Decay rate:       1.18e-06 rev/day^2
Epoch rev:           44951
Checksum:              290

Satellite: OKEAN-0
Catalog number: 25860
Epoch time:      08030.51976186
Element set:    0278
Inclination:      097.7416 deg
RA of node:       027.2691 deg
Eccentricity:    0.0001572
Arg of perigee:   047.9941 deg
Mean anomaly:     312.1398 deg
Mean motion:   14.73499234 rev/day
Decay rate:        1.8e-07 rev/day^2
Epoch rev:           45897
Checksum:              328

